Regional Weather Roundup
Issued by NWS Austin/San Antonio, TX

Home | Current Version | Previous Version | Text Only | Print | Product List | Glossary On
Versions: 1 2 3 4 5 6 7 8 9 10 11 12 13 14 15 16 17 18 19 20 21 22 23 24 25 26 27 28 29 30 31 32 33 34 35 36 37 38 39 40 41 42 43 44 45 46 47 48 49 50
038
ASUS44 KEWX 242201
RWREWX
SOUTH TEXAS REGIONAL WEATHER ROUNDUP
NATIONAL WEATHER SERVICE AUSTIN/SAN ANTONIO TX
500 PM CDT SAT AUG 24 2019

NOTE: "FAIR" INDICATED FEW OR NO CLOUDS BELOW 12,000 FEET WITH NO
SIGNIFICANT WEATHER AND/OR OBSTRUCTIONS TO VISIBILITY.

* - THESE STATIONS ARE NOT NWS OR FAA STATIONS...AND ARE NOT SUBJECT
    TO NWS AND FAA QUALITY CONTROL.

TXZ171-172-183>190-242300-
TEXAS HILL COUNTRY AND EDWARDS PLATEAU

CITY           SKY/WX    TMP DP  RH WIND       PRES   REMARKS
JUNCTION       LGT RAIN  78  74  87 W3        29.92F
*LLANO         PTSUNNY   84  73  70 E7        29.91S HX  91
BURNET         PTSUNNY   87  67  51 SE6       29.92F HX  90
*HORSESHOE BAY DRIZZLE   79  73  83 E5        29.89F
*KERRVILLE     MOSUNNY   91  71  51 SE14      29.89R HX  97
*FREDERICKSBRG MOSUNNY   93  66  40 E7        29.91R HX  95
*ROCKSPRINGS   MOSUNNY   84  68  58 E12G17    29.97R
*BOERNE        PTSUNNY   75  72  88 W6        29.90F
*CASTROVILLE   MOSUNNY  100  65  31 SE7       29.84F HX 103
HONDO          MOSUNNY   97  68  38 E9        29.83S HX 102
*UVALDE        PTSUNNY   95  67  40 E5        29.83S HX  98
DEL RIO        SUNNY     99  69  37 S10       29.80F HX 105
LAUGHLIN AFB   NOT AVBL
SPOFFORD       NOT AVBL
*EAGLE PASS    MOSUNNY   99  66  34 SE7G14    29.81S HX 102
CARRIZO SPRGS  MOSUNNY   97  70  41 E6        29.78F HX 103
$$

TXZ173-191>194-202-209-217>225-228-242300-
CENTRAL AND SOUTH CENTRAL TEXAS

CITY           SKY/WX    TMP DP  RH WIND       PRES   REMARKS
GEORGETOWN     CLOUDY    94  71  47 NE6       29.88F HX 101
AUSTIN/BERGSTM PTSUNNY   95  71  45 SE13      29.82F HX 102
AUSTIN/MABRY   MOSUNNY   96  66  37 VRB3      29.84F HX  99
*AUSTIN/EXEC   PTSUNNY   93  68  43 E7        29.84F HX  97
*LAGO VISTA    LGT RAIN  79  77  91 N5        29.89F
SAN MARCOS     MOSUNNY   95  71  45 VRB5      29.83F HX 102
NEW BRAUNFELS  SUNNY     95  68  41 E7        29.82F HX  99
RANDOLPH AFB   MOSUNNY   93  71  48 E7        29.83F HX 100
SEGUIN         NOT AVBL
KELLY FIELD    PTSUNNY   98  65  33 E9        29.81F HX 101
SAN ANTONIO    PTSUNNY   93  69  45 E7        29.84F HX  98
STINSON FIELD  MOSUNNY   97  69  40 E9        29.79F HX 103
PLEASANTON     MOSUNNY   80  70  72 SW6       29.83F
*LA GRANGE     MOSUNNY   96  74  47 SE5       29.80F HX 107
*GIDDINGS      MOSUNNY   89  74  62 N9        29.85F HX  97
*GONZALES      SUNNY     98  70  39 S7        29.81S HX 105
$$

TXZ163>164-176>182-195>201-210>213-226-227-235-242300-
SOUTHEAST TEXAS

CITY           SKY/WX    TMP DP  RH WIND       PRES   REMARKS
COLLEGE STN    MOSUNNY   95  70  44 N6        29.82F HX 101
*BRYAN         PTSUNNY   94  71  47 SE8       29.85F HX 102
*CALDWELL      SUNNY     95  69  42 S5        29.83F HX 100
*CROCKETT      SUNNY     93  72  49 NW5       29.88F HX 100
*BRENHAM       MOSUNNY   97  69  40 S8        29.82F HX 103
HUNTSVILLE     SUNNY     97  67  37 VRB3      29.84F HX 101
CONROE         SUNNY     93  74  53 S6        29.84F HX 103
HOUSTON BUSH   PTSUNNY   94  72  48 S8        29.82F HX 102
HOUSTON HOBBY  FAIR      90  74  59 S10       29.83F HX  99
*HOUSTON SW AP FAIR      89  76  64 SE6       29.85F HX 100
PEARLAND       FAIR      89  74  60 S10       29.85F HX  98
HOUSTON HOOKS  FAIR      93  72  50 VRB3      29.82F HX 101
ELLINGTON FLD  PTSUNNY   88  73  62 S9        29.83F HX  96
SUGAR LAND     FAIR      91  77  63 SE12      29.82F HX 104
*HOUSTON EXEC  CLOUDY    93  72  49 S7        29.83F HX 100
*CLEVELAND MUN FAIR      91  76  60 CALM      29.84F HX 102
*WHARTON       SUNNY     91  72  52 SE13      29.83F HX  98
*COLUMBUS      DRIZZLE   92  71  49 S5        29.83S HX  99
*EAGLE LAKE    PTSUNNY   97  76  51 S8G17     29.81F HX 110
$$

TXZ214>216-236>238-242300-
THE UPPER TEXAS COAST

CITY           SKY/WX    TMP DP  RH WIND       PRES   REMARKS
*ORANGE        FAIR      86  81  83 S10       29.88F HX 102
PORT ARTHUR    FAIR      87  77  72 S6        29.85F HX  99
GALVESTON      FAIR      87  76  69 S10       29.86F HX  97
ANGLETON       FAIR      87  75  67 S9        29.84F HX  96
*BAY CITY      PTSUNNY   89  79  72 S9        29.84F HX 103
PALACIOS       MOSUNNY   87  75  67 SE14      29.82F HX  96
$$

TXZ229>234-239>247-242300-
TEXAS COASTAL BEND AND RIO GRANDE PLAINS

CITY           SKY/WX    TMP DP  RH WIND       PRES   REMARKS
VICTORIA       MOSUNNY   89  77  67 SE15      29.83F HX 101
*BEEVILLE      NOT AVBL
ROCKPORT       SUNNY     86  78  77 SE16      29.82F HX  98
*PORT ARANSAS  SUNNY     87  76  71 SE15      29.84F HX  97
*PORT LAVACA   PTSUNNY   87  79  76 SE15      29.83F HX 101
*INGLESIDE     SUNNY     90  79  71 SE17      29.82F HX 105
CORPUS CHRISTI CLOUDY    91  77  63 SE17G25   29.80F HX 104
CORPUS NAS     MOSUNNY   88  81  79 SE21      29.82F HX 106
*ROBSTOWN      SUNNY     92  76  60 SE20      29.81F HX 103
ALICE          SUNNY     92  74  55 E20G30    29.80R HX 101
KINGSVILLE NAS SUNNY     91  77  63 SE18G25   29.79F HX 104
COTULLA        SUNNY     98  68  37 SE17      29.80S HX 103
LAREDO         SUNNY     95  72  47 SE14      29.80R HX 103
$$

TXZ248>255-242300-
DEEP SOUTH TEXAS

CITY           SKY/WX    TMP DP  RH WIND       PRES   REMARKS
BROWNSVILLE    FAIR      94  78  60 SE18      29.80F HX 110
PORT ISABEL    FAIR      90  76  63 SE21G26   29.81F HX 101
HARLINGEN      SUNNY     92  76  59 SE18      29.79F HX 104
*HEBBRONVILLE  SUNNY     85  76  75 CALM      29.82F HX  94
MCALLEN        MOSUNNY  102  72  37 SE18G24   29.76F HX 112
*WESLACO       SUNNY     96  72  45 E16G24    29.78R HX 104
FALFURRIAS     SUNNY     95  75  51 E15G23    29.78F HX 107
EDINBURG       FAIR      91  68  47 E21       29.78S HX  95
*ZAPATA        LGT RAIN  83  73  72 NE14G22   29.82R
$$

TXZ213>215-236>238-242>244-246-247-251-254-255-242300-
CMAN STATIONS

STATION/POSITION TIME  TEMP    WIND        PRES    WAVE
                       AIR SEA DIR/SP/G            HT/PER
                 (UTC) (F)     (DEG/KT/KT) (MB)    (FT/S)
SABINE PASS      2130   83 87  190/ 11/ 18 1013.1
NORTH JETTY/GLS  2130   83 86  200/ 13/ 15 1010.2
EAGLE POINT      2130   84 87  190/ 11/ 12 1010.2
MORGANS POINT    2130   87 88  170/  9/ 11 1010.8
PORT O`CONNOR    2130   82 88  140/ 17/ 20 1009.5
PORT ARANSAS     2100   83 88  100/ 17/ 18 1010.4
MALAQUITE BEACH  2130   86 88  100/ 18/ 20 1009.4
BAFFIN BAY       2130   84 91   90/ 18/ 21 1009.8
PORT ISABEL      2130   86 83  140/ 14/ 17 1010.3
$$




USA.gov is the U.S. government's official web portal to all federal, state and local government web resources and services.